Regional Weather Roundup
Issued by NWS Little Rock, AR

Home | Current Version | Previous Version | Graphics & Text | Print | Product List | Glossary On
Versions: 1 2 3 4 5 6 7 8 9 10 11 12 13 14 15 16 17 18 19 20 21 22 23 24 25 26 27 28 29 30 31 32 33 34 35 36 37 38 39 40 41 42 43 44 45 46 47 48 49 50
304
ASUS44 KLZK 170905
RWRLZK

WEATHER ROUNDUP FOR ARKANSAS
NATIONAL WEATHER SERVICE LITTLE ROCK AR
300 AM CST TUE JAN 17 2017

NOTE: "FAIR" INDICATES FEW OR NO CLOUDS BELOW 12,000 FEET WITH NO
SIGNIFICANT WEATHER AND/OR OBSTRUCTIONS TO VISIBILITY.

ARZ001-003-010-029-171000-
NORTHWEST ARKANSAS

CITY           SKY/WX    TMP DP  RH WIND       PRES   REMARKS
FAYETTEVILLE   PTCLDY    34  34 100 SW7       30.06R WCI  28
FORT SMITH     CLEAR     40  35  83 SW7       30.11R
HARRISON       CLOUDY    40  36  86 W6        30.03R
BENTONVILLE    CLOUDY   N/A N/A N/A W7        30.04R
ROGERS         CLOUDY    39  35  86 W8        30.04R
SILOAM SPGS    CLOUDY    37  34  87 W8        30.06R
HIGHFILL       CLOUDY    40  36  86 W7        30.04R
$$

ARZ004-005-016-171000-
NORTH CENTRAL ARKANSAS

CITY           SKY/WX    TMP DP  RH WIND       PRES   REMARKS
BATESVILLE     MOCLDY    50  45  81 W6        30.03S
FLIPPIN        CLEAR     43  34  70 W8        30.01S
MTN HOME       PTCLDY    41  37  86 W3        30.01S
$$

ARZ040-041-171000-
WEST CENTRAL ARKANSAS

CITY           SKY/WX    TMP DP  RH WIND       PRES   REMARKS
MENA           CLEAR     43  43 100 SW6       30.09S
MOUNT IDA      CLOUDY    47  44  90 CALM      30.05S
$$

ARZ009-017-025-026-028-171000-
NORTHEAST ARKANSAS

CITY           SKY/WX    TMP DP  RH WIND       PRES   REMARKS
CORNING        FAIR      48  46  93 W9        29.99R
JONESBORO      PTCLDY    56  50  80 W12       29.98R
NEWPORT        PTCLDY    52  48  86 W8        30.02R
WALNUT RIDGE   CLEAR     48  41  76 W13       30.00R
BLYTHEVILLE    CLOUDY    60  58  92 SW10      29.97F
$$

ARZ022-023-033-042-044-171000-
CENTRAL ARKANSAS

CITY           SKY/WX    TMP DP  RH WIND       PRES   REMARKS
LITTLE ROCK    CLOUDY    50  47  89 NW9       30.05F
N LITTLE ROCK    N/A     49  46  87 W3        30.05F
JACKSONVILLE   CLOUDY    51  49  94 W8        30.05R
SEARCY         MOCLDY    51  46  83 W6        30.06R
HOT SPRINGS    CLOUDY    50  47  89 W6        30.07R
RUSSELLVILLE   CLEAR     45  39  79 SW7       30.08R
CLINTON        FAIR      41  41 100 CALM      30.05R FOG
$$

ARZ036-171000-
EAST ARKANSAS

CITY           SKY/WX    TMP DP  RH WIND       PRES   REMARKS
WEST MEMPHIS   LGT RAIN  57 N/A N/A W7        30.00R
$$

ARZ050-053-066-070-073-171000-
SOUTHWEST ARKANSAS

CITY           SKY/WX    TMP DP  RH WIND       PRES   REMARKS
ARKADELPHIA    RAIN      53  51  93 W6        30.10R
CAMDEN         CLOUDY    54  48  82 W5        30.09R
TEXARKANA      LGT RAIN  50  50 100 W7        30.11S
EL DORADO      CLOUDY    56  55  97 W5        30.08R
DE QUEEN       CLOUDY    49  46  90 SW6       30.12R
$$

ARZ056-057-069-171000-
SOUTHEAST ARKANSAS

CITY           SKY/WX    TMP DP  RH WIND       PRES   REMARKS
PINE BLUFF     CLOUDY    55  54  96 S5        30.05F
STUTTGART      CLOUDY    55  48  76 W8        30.05S
MONTICELLO     CLOUDY    57  55  93 W3        30.06S

$$






USA.gov is the U.S. government's official web portal to all federal, state and local government web resources and services.